Weather observations for the past three days for
Lexington, Jim Kelly Field Airport
Imperial (Metric)
Date Time (cdt) Wind (mph) Vis. (mi.) Weather Sky Cond. Temperature (ºF) Relative Humidity Wind Chill (°F) Heat Index (°F) Pressure Precipitation (in)
Air Dwpt 6 hour altimeter (in) sea level (mb) 1 hr 3 hr 6 hr
Max. Min.
23 18:55 S 12 G 18 10.00 Fair CLR 94.6 62.4 98.1 87.6 34% 96 29.83 0.0
23 18:35 S 9 10.00 Fair CLR 95.9 62.8 33% 97 29.83 0.0
23 18:15 SW 9 G 17 10.00 Fair CLR 96.6 61.2 31% 97 29.83 0.0
23 17:55 SW 10 10.00 Fair CLR 97.2 62.1 31% 98 29.84 0.0
23 17:35 SW 9 10.00 Fair CLR 97.5 62.6 32% 99 29.85 0.0
23 17:15 S 10 G 17 10.00 Fair CLR 97.7 61.7 30% 99 29.85 0.0
23 16:55 SW 10 G 17 10.00 Fair CLR 97.7 63.3 32% 100 29.86 0.0
23 16:35 SW 9 G 17 10.00 Fair CLR 97.7 64.8 34% 101 29.86 0.0
23 16:15 S 10 G 21 10.00 Fair CLR 96.6 66.4 37% 100 29.87 0.0
23 15:55 S 12 10.00 Fair CLR 96.1 66.7 38% 100 29.88 0.0
23 15:35 S 12 G 16 10.00 Fair CLR 95.4 68.4 41% 100 29.89 0.0
23 15:15 S 12 G 20 10.00 Fair CLR 94.8 70.2 45% 101 29.9 0.0
23 14:55 S 16 G 23 10.00 Fair CLR 93.4 69.4 46% 99 29.91 0.0
23 14:35 SW 15 G 21 10.00 Fair CLR 92.8 70.3 48% 99 29.92 0.0
23 14:15 S 15 G 23 10.00 Fair CLR 91.4 70.5 51% 98 29.92 0.0
23 13:55 S 14 G 22 10.00 Fair CLR 91 71.1 52% 98 29.93 0.0
23 13:35 S 17 G 23 10.00 Fair CLR 89.4 70.2 53% 95 29.94 0.0
23 13:15 S 15 G 21 10.00 Fair CLR 88.5 71.1 56% 95 29.95 0.0
23 12:55 S 13 G 20 10.00 Fair CLR 87.4 72 87.4 64.6 60% 94 29.96 0.0
23 12:35 S 14 G 21 10.00 Fair CLR 86.4 71.2 61% 92 29.97 0.0
23 12:15 S 16 G 22 10.00 Fair CLR 84.7 70.5 62% 90 29.97 0.0
23 11:55 SW 15 G 23 10.00 Fair CLR 83.5 70.2 64% 88 29.97 0.0
23 11:35 S 14 10.00 Fair CLR 82.6 70.3 67% 87 29.98 0.0
23 11:15 SW 12 G 18 10.00 Fair CLR 81.9 70.3 68% 86 29.99 0.0
23 10:55 S 12 G 18 10.00 Fair CLR 81.5 70.2 69% 85 29.99 0.0
23 10:35 S 12 10.00 Fair CLR 80.6 69.1 68% 84 29.99 0.0
23 10:15 S 10 10.00 Fair CLR 79.9 68.9 69% 83 29.99 0.0
23 09:55 S 12 10.00 Fair CLR 78.8 68.7 71% 81 30 0.0
23 09:35 S 12 10.00 Fair CLR 77.2 68.5 75% 79 30 0.0
23 09:15 S 10 10.00 Fair CLR 75.9 68.5 78% 77 30 0.0
23 08:55 S 9 10.00 Fair CLR 74.7 68.9 82% 30 0.0
23 08:35 S 9 10.00 Fair CLR 72.7 68.5 87% 30 0.0
23 08:15 S 9 10.00 Fair CLR 71.4 68.5 91% 30 0.0
23 07:55 S 9 10.00 Fair CLR 70.2 68.2 93% 30 0.0
23 07:35 S 8 10.00 Fair CLR 68.4 66.9 95% 30 0.0
23 07:15 S 9 10.00 Fair CLR 66.4 66 99% 30 0.0
23 06:55 S 6 7.00 Fair CLR 63.7 63.1 65.5 59.9 98% 30.01 0.0
23 06:35 S 5 5.00 Fog/Mist CLR 61.9 61.3 98% 30 0.0
23 06:15 Calm 2.50 Fog/Mist CLR 60.8 60.3 98% 30 0.0
23 05:55 Calm 3.00 Fog/Mist CLR 61.3 60.8 98% 30.01 0.0
23 05:35 SW 3 5.00 Fog/Mist CLR 62.6 62.1 98% 30.01 0.0
23 05:15 S 5 7.00 Fair CLR 64 63.5 98% 30 0.0
23 04:55 SE 6 7.00 Fair CLR 63 62.4 98% 29.99 0.0
23 04:35 Calm 7.00 Fair CLR 61.5 61 98% 29.99 0.0
23 04:15 Calm 7.00 Fair CLR 61.2 60.6 98% 30 0.0
23 03:55 Calm 5.00 Fog/Mist CLR 61.9 61.3 98% 30 0.0
23 03:35 Calm 7.00 Fair CLR 61.5 60.8 98% 30.01 0.0
23 03:15 Calm 7.00 Fair CLR 61.9 61.5 99% 30.02 0.0
23 02:55 NE 3 10.00 Fair CLR 61.7 61.2 98% 30.02 0.0
23 02:35 Calm 10.00 Fair CLR 63.3 62.2 96% 30.02 0.0
23 02:15 SE 3 10.00 Fair CLR 64.4 63.7 98% 30.02 0.0
23 01:55 SE 5 10.00 Fair CLR 64.8 63.5 96% 30.01 0.0
23 01:35 SE 3 10.00 Fair CLR 64.9 63.7 96% 30.01 0.0
23 01:15 E 6 10.00 Fair CLR 65.5 63.9 95% 30.01 0.0
23 00:55 Calm 10.00 Fair CLR 64 63.3 83.5 63.9 98% 30.01 0.0
23 00:35 Calm 10.00 Fair CLR 65.8 64.9 97% 30.01 0.0
23 00:15 Calm 10.00 Fair CLR 66 65.1 97% 30.02 0.0
22 23:55 Calm 10.00 Fair CLR 67.5 65.3 93% 30.02 0.0
22 23:35 Calm 10.00 Fair CLR 69.4 64.4 84% 30.01 0.0
22 23:15 Calm 10.00 Fair CLR 68.9 65.3 88% 30.01 0.0
22 22:55 E 6 10.00 Fair CLR 68.9 65.3 88% 30.01 0.0
22 22:35 E 7 10.00 Fair CLR 70.2 65.1 84% 30 0.0
22 22:15 E 5 10.00 Fair CLR 72.3 66.6 82% 29.99 0.0
22 21:55 E 3 10.00 Fair CLR 72.7 68 85% 29.99 0.0
22 21:35 NE 3 10.00 Fair CLR 72.7 69.1 89% 29.98 0.0
22 21:15 NE 3 10.00 Fair CLR 75.6 69.4 81% 76 29.98 0.0
22 20:55 NE 5 10.00 Fair CLR 76.6 70 80% 78 29.97 0.0
22 20:35 NE 3 10.00 Fair CLR 78.8 68.7 71% 81 29.97 0.0
22 20:15 NE 5 10.00 Fair CLR 80.8 68.9 67% 84 29.97 0.0
22 19:55 Calm 10.00 Fair CLR 82.4 69.3 65% 86 29.97 0.0
22 19:35 N 3 10.00 Fair CLR 82.9 68.2 61% 86 29.97 0.0
22 19:15 N 6 10.00 Fair CLR 83.5 68.2 60% 87 29.97 0.0
22 18:55 NW 8 10.00 Fair CLR 83.5 67.6 84.2 80.4 59% 86 29.97 0.0
22 18:35 N 6 10.00 Fair CLR 83.8 67.3 58% 87 29.97 0.0
22 18:15 N 7 10.00 Fair CLR 83.8 67.6 58% 87 29.97 0.0
22 17:55 NW 6 10.00 Fair CLR 84 67.1 57% 87 29.96 0.0
22 17:35 NW 8 10.00 Fair CLR 83.7 66.6 56% 86 29.97 0.0
22 17:15 NW 12 10.00 Fair CLR 83.5 65.8 55% 86 29.97 0.0
22 16:55 NW 9 10.00 Fair CLR 83.5 67.3 58% 86 29.96 0.0
22 16:35 NW 12 10.00 Fair CLR 83.3 67.5 59% 86 29.97 0.0
22 16:15 NW 8 10.00 Fair CLR 83.5 67.8 59% 87 29.97 0.0
22 15:55 NW 10 10.00 Fair CLR 82.6 66.7 59% 85 29.97 0.0
22 15:35 N 12 10.00 Partly Cloudy SCT035 82.8 67.6 60% 86 29.97 0.0
22 15:15 N 12 G 20 10.00 Partly Cloudy SCT037 81.9 68.2 63% 85 29.97 0.0
22 14:55 N 14 G 17 10.00 Partly Cloudy SCT031 81.5 67.8 63% 84 29.97 0.0
22 14:35 N 12 G 17 10.00 Partly Cloudy SCT031 81.5 68.9 66% 85 29.97 0.0
22 14:15 N 10 G 17 10.00 Partly Cloudy SCT033 81.9 68 63% 85 29.97 0.0
22 13:55 N 16 10.00 Fair CLR 81.7 68.7 65% 85 29.97 0.0
22 13:35 N 18 G 22 10.00 Partly Cloudy SCT031 81.5 68.7 65% 85 29.97 0.0
22 13:15 N 17 G 22 10.00 Partly Cloudy SCT031 80.8 68.7 67% 84 29.97 0.0
22 12:55 N 14 G 21 10.00 Partly Cloudy SCT027 SCT034 81 69.1 81.1 67.3 67% 84 29.96 0.0 0.01 0.01
22 12:35 N 15 10.00 Partly Cloudy SCT027 79.2 69.1 71% 82 29.96 0.0 0.01
22 12:15 N 15 10.00 Partly Cloudy SCT023 79 69.4 73% 82 29.96 0.0
22 11:55 N 15 10.00 Mostly Cloudy BKN021 78.1 70.2 77% 80 29.95 0.0
22 11:35 N 13 G 18 10.00 Mostly Cloudy BKN019 77.5 70.2 78% 79 29.95 0.0
22 11:15 N 17 G 23 10.00 Mostly Cloudy BKN021 77.4 70.3 79% 79 29.95 0.0
22 10:55 N 14 G 21 10.00 Overcast BKN018 OVC024 74.8 69.6 84% 29.95 0.0
22 10:35 N 14 G 21 10.00 Overcast OVC014 73.4 69.1 86% 29.94 0.0
22 10:15 N 15 G 22 10.00 Overcast OVC010 71.1 68.7 92% 29.94 0.0
22 09:55 NW 17 G 25 10.00 Overcast OVC008 71.2 69.8 95% 29.92 0.0
22 09:35 N 14 10.00 Overcast OVC010 71.6 70.3 96% 29.92 0.0
22 09:15 N 13 10.00 Overcast OVC010 71.6 70 95% 29.91 0.0
22 08:55 N 10 10.00 Overcast OVC012 71.2 69.8 95% 29.9 0.0
22 08:35 N 12 G 17 10.00 Mostly Cloudy SCT006 BKN012 70.9 69.8 96% 29.9 0.0
22 08:15 N 10 10.00 Mostly Cloudy BKN006 69.1 68.7 99% 29.9 0.0
22 07:55 N 13 10.00 Overcast OVC004 68.4 68 99% 29.89 0.0
22 07:35 N 10 7.00 Mostly Cloudy BKN004 68.2 67.6 98% 29.88 0.0
22 07:15 NW 8 5.00 Fog/Mist CLR 68 67.3 98% 29.87 0.0
22 06:55 N 5 4.00 Fog/Mist CLR 67.1 66.4 72.7 66.2 98% 29.85 0.0
22 06:35 N 7 3.00 Fog/Mist CLR 66.4 65.8 98% 29.85 0.0
22 06:15 N 6 3.00 Fog/Mist CLR 66.4 66 99% 29.83 0.0
22 05:55 E 8 5.00 Fog/Mist CLR 67.1 66.6 98% 29.82 0.0
22 05:35 NE 8 5.00 Fog/Mist CLR 67.3 66.7 98% 29.83 0.0
22 05:15 NE 9 7.00 Fair CLR 67.3 66.7 98% 29.84 0.0
22 04:55 N 8 7.00 Fair CLR 66.6 66.2 99% 29.85 0.0
22 04:35 N 3 7.00 Fair CLR 66.6 66 98% 29.85 0.0
22 04:15 NE 5 7.00 Fair CLR 66.7 66.2 98% 29.85 0.0
22 03:55 N 5 10.00 Fair CLR 67.6 67.1 98% 29.85 0.0
22 03:35 E 5 10.00 Fair CLR 68.5 68 98% 29.84 0.0
22 03:15 E 5 10.00 Fair CLR 69.3 68.4 97% 29.85 0.0
22 02:55 E 6 10.00 Fair CLR 70.7 69.3 95% 29.84 0.0
22 02:35 SE 10 10.00 Fair CLR 70.7 69.8 97% 29.84 0.0
22 02:15 E 9 10.00 Fair CLR 70.9 69.8 96% 29.85 0.0
22 01:55 E 8 10.00 Fair CLR 71.4 69.8 95% 29.86 0.0
22 01:35 E 9 10.00 Fair CLR 72.1 70 93% 29.86 0.0
22 01:15 E 9 10.00 Fair CLR 72.1 70 93% 29.86 0.0
22 00:55 E 9 10.00 Fair CLR 72.7 70 82.4 71.2 91% 29.87 0.0 0.3
22 00:35 E 8 10.00 Fair CLR 71.6 70.7 97% 29.88 0.0
22 00:15 E 7 10.00 Fair CLR 71.2 70.7 98% 29.88 0.0
21 23:55 NE 7 10.00 Fair CLR 72 71.2 98% 29.89 0.0
21 23:35 E 8 10.00 Fair CLR 72.5 71.8 98% 29.89 0.0
21 23:15 E 6 10.00 Fair CLR 72.7 72 98% 29.88 0.0
21 22:55 SE 7 10.00 Partly Cloudy SCT055 SCT065 72.7 72 98% 29.88 0.0 0.3
21 22:35 E 5 10.00 Light Rain SCT009 SCT025 BKN060 73.2 72.3 97% 29.89 0.0 0.3
21 22:15 N 16 G 25 3.00 Heavy Rain SCT014 BKN042 OVC060 73.9 72.1 94% 29.89 0.0 0.13
21 21:55 E 10 10.00 Overcast OVC060 75.2 69.6 83% 75 29.85 0.0
21 21:35 E 12 G 16 10.00 Overcast SCT038 SCT048 OVC060 74.7 70.2 86% 29.86 0.0
21 21:15 E 13 G 16 10.00 Overcast SCT038 BKN060 OVC080 73.4 70 89% 29.86 0.0
21 20:55 NW 3 10.00 Overcast SCT060 OVC080 76.8 69.4 78% 78 29.84 0.0
21 20:35 NE 9 G 18 10.00 Overcast BKN060 OVC080 73.8 69.8 88% 29.83 0.0
21 20:15 NE 12 G 26 10.00 Overcast SCT047 BKN055 OVC070 72.9 70 91% 29.83 0.0
21 19:35 NE 10 10.00 Overcast SCT065 OVC075 77 71.8 84% 78 29.85 0.0
21 19:15 NE 6 10.00 Overcast BKN065 BKN075 OVC110 76.6 71.8 85% 78 29.85 0.0
21 18:55 S 16 G 24 10.00 Partly Cloudy SCT100 SCT120 81.5 70.3 92.5 74.1 69% 85 29.85 0.0 0.2
21 18:35 NE 5 10.00 Mostly Cloudy SCT060 SCT075 BKN120 76.1 73.6 92% 76 29.85 0.0
21 18:15 Calm 10.00 Overcast SCT033 BKN060 OVC120 76.5 71.6 85% 77 29.87 0.0
21 17:55 NW 6 G 17 2.00 Heavy Rain SCT028 BKN046 OVC060 74.7 71.6 90% 29.88 0.0 0.07
21 17:35 W 17 G 24 10.00 Partly Cloudy SCT060 SCT090 SCT110 79.5 69.6 72% 82 29.91 0.0
21 17:15 S 20 G 31 10.00 Mostly Cloudy SCT028 SCT060 BKN095 80.6 69.8 70% 84 29.87 0.0
21 16:55 SE 9 5.00 Light Rain SCT019 BKN028 OVC070 77.7 72.3 84% 80 29.89 0.0 0.12
21 16:35 S 23 G 30 7.00 Rain and Breezy SCT030 SCT065 BKN075 84.6 68.7 59% 88 29.92 0.0
21 16:15 S 20 G 32 10.00 Partly Cloudy SCT070 SCT100 90 66 45% 93 29.91 0.0
21 15:55 S 22 G 30 10.00 Partly Cloudy and Breezy SCT070 SCT080 91.8 65.5 42% 94 29.92 0.0
21 15:35 S 21 G 28 10.00 Partly Cloudy and Breezy SCT070 SCT080 91.4 66.4 44% 94 29.94 0.0
21 15:15 S 22 G 26 10.00 Partly Cloudy and Breezy SCT070 SCT090 91.6 66 43% 94 29.95 0.0
21 14:55 S 17 G 29 10.00 Partly Cloudy SCT060 SCT070 90.5 65.8 44% 93 29.97 0.0
21 14:35 S 17 G 23 10.00 Mostly Cloudy SCT060 BKN070 89.8 67.5 48% 93 29.97 0.0
21 14:15 S 14 G 22 10.00 Mostly Cloudy BKN050 BKN060 BKN070 87.1 67.8 53% 90 29.98 0.0
21 13:55 S 16 G 29 10.00 Mostly Cloudy BKN048 BKN060 BKN070 86.9 67.6 53% 90 29.99 0.0
21 13:35 S 20 G 25 10.00 Mostly Cloudy SCT048 BKN060 BKN070 88 68.4 52% 92 29.99 0.0
21 13:15 S 18 G 32 10.00 Mostly Cloudy BKN045 BKN050 87.4 68.5 54% 91 30 0.0
21 12:55 S 20 G 24 10.00 Mostly Cloudy BKN044 BKN050 85.5 67.8 88.2 69.4 56% 89 30.01 0.0
21 12:35 S 17 G 25 10.00 Partly Cloudy SCT044 87.3 68.9 55% 91 30.02 0.0
21 12:15 S 21 G 26 10.00 Partly Cloudy and Breezy SCT040 SCT046 86.2 68.2 55% 90 30.03 0.0
21 11:55 S 16 G 24 10.00 Partly Cloudy SCT038 SCT044 84.9 68.4 58% 88 30.03 0.0
21 11:35 S 17 G 28 10.00 Partly Cloudy SCT036 84 68.4 59% 87 30.04 0.0
21 11:15 S 20 G 28 10.00 Fair CLR 83.3 67.6 59% 86 30.04 0.0
21 10:55 S 21 G 26 10.00 Fair and Breezy CLR 81.9 67.5 62% 85 30.04 0.0
21 10:35 S 21 G 25 10.00 Fair and Breezy CLR 80.8 68 65% 84 30.04 0.0
21 10:15 S 20 G 25 10.00 Fair CLR 80.1 68 67% 83 30.05 0.0
21 09:55 S 22 G 26 10.00 Fair and Breezy CLR 78.6 67.5 69% 81 30.05 0.0
21 09:35 S 18 G 28 10.00 Fair CLR 77.9 67.5 70% 80 30.06 0.0
21 09:15 S 18 G 28 10.00 Fair CLR 76.6 66.9 72% 78 30.07 0.0
21 08:55 S 18 G 25 10.00 Fair CLR 75.4 66.4 74% 77 30.07 0.0
21 08:35 S 17 G 22 10.00 Fair CLR 74.5 66.2 76% 30.08 0.0
21 08:15 S 14 G 22 10.00 Fair CLR 73.4 66.4 79% 30.08 0.0
21 07:55 S 14 G 18 10.00 Fair CLR 72 66.2 82% 30.08 0.0
21 07:35 SE 9 10.00 Fair CLR 70.9 66 85% 30.09 0.0
21 07:15 SE 8 10.00 Fair CLR 70.2 65.8 86% 30.1 0.0
21 06:55 SE 7 10.00 Fair CLR 69.4 65.8 73.2 68.9 88% 30.1 0.0
21 06:35 SE 8 10.00 Fair CLR 69.1 65.8 89% 30.1 0.0
21 06:15 SE 7 10.00 Fair CLR 68.9 66.2 91% 30.1 0.0
21 05:55 S 7 10.00 Fair CLR 69.3 66.2 90% 30.1 0.0
21 05:35 S 6 10.00 Fair CLR 68.9 66.2 91% 30.09 0.0
21 05:15 SE 8 10.00 Fair CLR 69.4 66.2 90% 30.09 0.0
21 04:55 SE 8 10.00 Fair CLR 70 66.4 88% 30.1 0.0
21 04:35 SE 7 10.00 Fair CLR 69.8 66.2 88% 30.11 0.0
21 04:15 SE 6 10.00 Partly Cloudy SCT065 70.7 66.2 86% 30.11 0.0
21 03:55 SE 6 10.00 Overcast BKN065 OVC075 71.4 66.4 84% 30.12 0.0
21 03:35 SE 3 10.00 Overcast OVC065 72.7 66 80% 30.13 0.0
21 03:15 Calm 10.00 Mostly Cloudy BKN075 BKN080 71.2 66.6 85% 30.14 0.0
21 02:55 E 3 10.00 Overcast OVC070 71.6 67.3 86% 30.14 0.0
21 02:35 Calm 10.00 Overcast OVC070 72.9 66.4 80% 30.15 0.0
21 02:15 S 8 10.00 Overcast OVC070 73 66.2 79% 30.15 0.0
21 01:55 S 7 10.00 Mostly Cloudy SCT070 BKN080 BKN100 72.7 65.8 79% 30.15 0.0
21 01:35 S 6 10.00 Mostly Cloudy SCT070 SCT080 BKN100 72.5 65.5 79% 30.16 0.0
21 01:15 SE 6 10.00 Fair CLR 72.3 65.3 79% 30.15 0.0
21 00:55 SE 8 10.00 Fair CLR 73.4 64.4 85.5 73.4 74% 30.15 0.0
21 00:35 S 10 10.00 Fair CLR 73.6 64.2 73% 30.14 0.0
21 00:15 S 12 10.00 Fair CLR 73.6 64 72% 30.14 0.0
20 23:55 S 9 10.00 Fair CLR 73.9 63.9 71% 30.13 0.0
20 23:35 S 10 10.00 Fair CLR 74.5 63.9 70% 30.12 0.0
20 23:15 S 13 10.00 Fair CLR 75.2 63.7 68% 77 30.12 0.0
20 22:55 S 10 10.00 Fair CLR 76.1 63.9 66% 78 30.13 0.0
20 22:35 S 12 10.00 Fair CLR 76.1 63.9 66% 78 30.12 0.0
20 22:15 S 10 10.00 Fair CLR 76.6 63.9 65% 78 30.11 0.0
20 21:55 S 14 10.00 Fair CLR 76.6 64 65% 78 30.09 0.0
20 21:35 S 13 10.00 Partly Cloudy SCT065 SCT075 77.2 63.7 63% 79 30.1 0.0
20 21:15 S 10 10.00 Mostly Cloudy BKN065 BKN080 79.2 63.5 59% 81 30.1 0.0
20 20:55 S 12 G 16 10.00 Overcast OVC065 81 62.6 54% 82 30.1 0.0
20 20:35 S 14 G 18 10.00 Mostly Cloudy BKN065 82.4 62.2 51% 83 30.08 0.0
20 20:15 S 15 G 22 10.00 Mostly Cloudy BKN065 83.3 62.8 50% 84 30.08 0.0
20 19:55 S 17 G 23 10.00 Fair CLR 83.7 61.7 48% 84 30.07 0.0
20 19:35 S 18 G 28 10.00 Fair CLR 84.4 60.8 45% 85 30.05 0.0
20 19:15 S 24 G 31 10.00 Fair and Breezy CLR 85.1 61.5 45% 85 30.05 0.0
Date Time (cdt) Wind (mph) Vis. (mi.) Weather Sky Cond. Air Dwpt Max. Min. Relative Humidity Wind Chill (°F) Heat Index (°F) altimeter (in) sea level (mb) 1 hr 3 hr 6 hr
6 hour
Temperature (ºF) Pressure Precipitation (in)